Alexandria, LA

5:33 AM CDT on July 28, 2017 (GMT -0500)
Alexandria International

Weather History for KAEX - October, 2014

Change the Weather History Date:

Saturday, October 25, 2014

  Actual Average Record
Temperature  
Mean Temperature 64 °F 64 °F  
Max Temperature 83 °F 77 °F 88 °F (2010)
Min Temperature 44 °F 52 °F 32 °F (1917)
Degree Days  
Heating Degree Days 1 4  
Month to date heating degree days 17 46  
Since 1 July heating degree days 17 49  
Cooling Degree Days 0 3  
Month to date cooling degree days 146 121  
Year to date cooling degree days 2455 2471  
Growing Degree Days 14 (Base 50)    
Moisture  
Dew Point 50 °F    
Average Humidity 67    
Maximum Humidity 100    
Minimum Humidity 33    
Precipitation  
Precipitation 0.00 in 0.13 in 4.05 in (2015)
Month to date precipitation 4.54 4.74  
Year to date precipitation 36.76 43.87  
Snow  
Snow 0.00 in - 0.00 in ()
Month to date snowfall 0.0  
Since 1 July snowfall 0.0  
Since 1 September snowfall 0.0  
Snow Depth 0.00 in    
Sea Level Pressure  
Sea Level Pressure 30.12 in    
Wind  
Wind Speed 1 mph (WSW)    
Max Wind Speed 9 mph    
Max Gust Speed 13 mph    
Visibility 5 miles    
Events Fog    
T = Trace of Precipitation, MM = Missing Value Source: NWS Daily Summary

Daily Weather History Graph

Daily Weather History Graph

Search for Another Location

Airport or City:

Trip Planner

Search our weather history database for the weather conditions in past years. The results will help you decide how hot, cold, wet, or windy it might be!

Date:

Astronomy

Oct. 25, 2014 Rise Set
Actual Time 7:20 AM CDT 6:27 PM CDT
Civil Twilight 6:55 AM CDT 6:52 PM CDT
Nautical Twilight 6:27 AM CDT 7:20 PM CDT
Astronomical Twilight 5:58 AM CDT 7:49 PM CDT
Moon 8:55 AM CDT (10/25) 7:56 PM CDT (10/25)
Length of Visible Light 11h 56m
Length of Day
11h 07m
Waxing Crescent, 3% of the Moon is Illuminated
Oct 25
Waxing Crescent
Oct 30
First Quarter
Nov 6
Full
Nov 14
Last Quarter
Nov 22
New

Hourly Weather History & Observations

Time (CDT) Temp. Windchill Dew Point Humidity Pressure Visibility Wind Dir Wind Speed Gust Speed Precip Events Conditions
12:17 AM 51.1 °F - 51.1 °F 100% 30.12 in 1.8 mi Calm Calm - N/A   Clear
12:26 AM 51.1 °F - 51.1 °F 100% 30.12 in 3.0 mi Calm Calm - N/A   Clear
12:53 AM 50.0 °F - 50.0 °F 100% 30.14 in 5.0 mi Calm Calm - N/A   Clear
1:15 AM 50.0 °F - 48.0 °F 93% 30.12 in 2.5 mi Calm Calm - N/A   Partly Cloudy
1:23 AM 50.0 °F - 48.9 °F 96% 30.12 in 1.8 mi Calm Calm - N/A   Clear
1:27 AM 50.0 °F - 48.9 °F 96% 30.12 in 4.0 mi Calm Calm - N/A   Clear
1:53 AM 50.0 °F - 48.9 °F 96% 30.14 in 6.0 mi Calm Calm - N/A   Clear
2:53 AM 51.1 °F - 50.0 °F 96% 30.12 in 6.0 mi Calm Calm - N/A   Clear
3:05 AM 48.9 °F - 48.0 °F 97% 30.11 in 2.5 mi Calm Calm - N/A   Partly Cloudy
3:14 AM 48.0 °F - 48.0 °F 100% 30.11 in 1.2 mi Calm Calm - N/A   Clear
3:27 AM 48.0 °F - 46.9 °F 96% 30.11 in 3.0 mi Calm Calm - N/A   Clear
3:46 AM 46.9 °F - 46.9 °F 100% 30.11 in 1.8 mi Calm Calm - N/A   Partly Cloudy
3:53 AM 48.0 °F - 48.0 °F 100% 30.13 in 2.5 mi Calm Calm - N/A   Partly Cloudy
4:00 AM 48.0 °F - 48.0 °F 100% 30.12 in 3.0 mi Calm Calm - N/A   Scattered Clouds
4:08 AM 48.0 °F - 48.0 °F 100% 30.11 in 4.0 mi Calm Calm - N/A   Mostly Cloudy
4:14 AM 48.0 °F - 46.9 °F 96% 30.11 in 2.5 mi Calm Calm - N/A   Mist
4:19 AM 48.0 °F - 48.0 °F 100% 30.11 in 0.8 mi Calm Calm - N/A   Mist
4:37 AM 46.9 °F - 46.0 °F 97% 30.11 in 2.0 mi Calm Calm - N/A   Mist
4:45 AM 46.9 °F - 46.0 °F 97% 30.12 in 3.0 mi Calm Calm - N/A   Scattered Clouds
4:53 AM 48.0 °F - 46.9 °F 96% 30.13 in 6.0 mi Calm Calm - N/A   Partly Cloudy
5:00 AM 46.9 °F - 46.0 °F 97% 30.12 in 1.5 mi Calm Calm - N/A   Scattered Clouds
5:02 AM 46.0 °F - 46.0 °F 100% 30.12 in 0.8 mi Calm Calm - N/A   Mist
5:13 AM 46.0 °F - 46.0 °F 100% 30.12 in 0.2 mi Calm Calm - N/A Fog Fog
5:29 AM 46.9 °F - 46.9 °F 100% 30.12 in 0.8 mi Calm Calm - N/A   Mist
5:50 AM 46.4 °F - 46.4 °F 100% 30.13 in 2.0 mi Calm Calm - N/A   Mostly Cloudy
5:53 AM 46.0 °F - 46.0 °F 100% 30.14 in 3.0 mi Calm Calm - N/A   Mostly Cloudy
5:56 AM 46.0 °F - 46.0 °F 100% 30.13 in 1.8 mi Calm Calm - N/A   Scattered Clouds
6:05 AM 46.9 °F - 46.0 °F 97% 30.13 in 3.0 mi Calm Calm - N/A   Partly Cloudy
6:53 AM 46.0 °F 44.8 °F 45.0 °F 96% 30.15 in 8.0 mi WSW 3.5 mph - N/A   Clear
7:10 AM 46.9 °F - 46.9 °F 100% 30.14 in 5.0 mi WSW 3.5 mph - N/A   Partly Cloudy
7:22 AM 46.9 °F - 46.9 °F 100% 30.14 in 2.0 mi Calm Calm - N/A   Partly Cloudy
7:53 AM 46.9 °F - 46.9 °F 100% 30.17 in 2.0 mi Calm Calm - N/A   Clear
8:00 AM 48.9 °F - 48.9 °F 100% 30.15 in 9.0 mi Calm Calm - N/A   Clear
8:53 AM 55.0 °F - 54.0 °F 96% 30.18 in 9.0 mi Calm Calm - N/A   Clear
9:53 AM 63.0 °F - 55.0 °F 75% 30.19 in 10.0 mi Calm Calm - N/A   Clear
10:53 AM 70.0 °F - 54.0 °F 57% 30.18 in 10.0 mi Calm Calm - N/A   Clear
11:53 AM 75.0 °F - 55.0 °F 50% 30.17 in 10.0 mi Calm Calm - N/A   Clear
12:53 PM 78.1 °F - 54.0 °F 43% 30.15 in 10.0 mi Calm Calm - N/A   Clear
1:53 PM 82.0 °F - 52.0 °F 35% 30.12 in 10.0 mi Variable 4.6 mph - N/A   Clear
2:53 PM 82.0 °F - 50.0 °F 33% 30.10 in 10.0 mi Variable 4.6 mph - N/A   Clear
3:53 PM 82.0 °F - 51.1 °F 34% 30.09 in 10.0 mi Variable 4.6 mph - N/A   Clear
4:53 PM 82.0 °F - 52.0 °F 35% 30.08 in 10.0 mi West 3.5 mph - N/A   Clear
5:53 PM 79.0 °F - 53.1 °F 40% 30.07 in 10.0 mi SW 4.6 mph - N/A   Clear
6:53 PM 66.9 °F - 59.0 °F 76% 30.09 in 10.0 mi Calm Calm - N/A   Clear
7:53 PM 64.0 °F - 57.9 °F 80% 30.09 in 10.0 mi Calm Calm - N/A   Clear
8:53 PM 62.1 °F - 55.9 °F 80% 30.09 in 10.0 mi Calm Calm - N/A   Clear
9:53 PM 61.0 °F - 57.9 °F 90% 30.09 in 10.0 mi Calm Calm - N/A   Clear
10:53 PM 61.0 °F - 59.0 °F 93% 30.09 in 9.0 mi Calm Calm - N/A   Clear
11:53 PM 57.9 °F - 55.9 °F 93% 30.08 in 8.0 mi Calm Calm - N/A   Clear